Date String (YYYY-MM-DD hh:mm:ss) UTC,Instrument flags,absolute air pressure of the measurement (hPa),sample flow rate (lpm),inlet stack bypass flow (lpm),air temperature of the measurement (°C),ambient temperature measured by the external sensor (°C),aerosol sample conditioner tube jacket temperature (°C),OPC LED temperature (°C),internal box temperature (°C),relative humidity of the measurement (%),span deviation,mass concentration of particles derived from Lorenz-Mie calculation of OPC scattering (μg/m³),mass concentration of particles derived from Lorenz-Mie calculation of OPC scattering (μg/m³),mass concentration of particles derived from Lorenz-Mie calculation of OPC scattering (μg/m³)
DateTimeUTC,F1_M11,P_M11,Q1_M11,Q2_M11,T1_M11,T2_M11,T3_M11,T4_M11,T5_M11,U1_M11,ZSPAN_M11,X2_M11,X0_M11,X1_M11
2024-01-06 12:02:00,SystemResetWarning,0824.1,5.00,000.00,018.7,017.7,000.0,027.2,020.0,12.2,0000.0,0002.91,0007.03,0002.33
2024-01-06 12:03:00,SystemResetWarning,0824.1,4.99,000.00,018.7,017.7,000.0,027.2,020.0,12.2,0000.0,0002.89,0006.73,0002.32
2024-01-06 12:04:00,SystemResetWarning,0824.2,5.00,000.00,018.7,017.7,000.0,027.2,020.0,12.3,0000.0,0002.89,0006.76,0002.32
2024-01-06 12:05:00,SystemResetWarning,0824.2,5.01,000.00,018.7,017.7,000.0,027.2,020.0,12.3,0000.0,0002.98,0006.63,0002.32
2024-01-06 12:06:00,SystemResetWarning,0824.1,5.01,000.00,018.7,017.7,000.0,027.2,020.0,12.3,0000.0,0002.97,0005.92,0002.31
2024-01-06 12:07:00,SystemResetWarning,0824.1,5.01,000.00,018.7,017.6,000.0,027.2,020.0,12.4,0000.0,0002.97,0005.90,0002.31
2024-01-06 12:08:00,SystemResetWarning,0824.1,4.99,000.00,018.7,017.6,000.0,027.2,020.0,12.4,0000.0,0002.97,0005.90,0002.30
2024-01-06 12:09:00,SystemResetWarning,0824.1,5.01,000.00,018.7,017.6,000.0,027.2,020.0,12.4,0000.0,0002.95,0005.20,0002.30
2024-01-06 12:10:00,SystemResetWarning,0824.0,4.99,000.00,018.7,017.6,000.0,027.2,020.0,12.4,0000.0,0002.98,0005.03,0002.32
2024-01-06 12:11:00,SystemResetWarning,0824.0,4.99,000.00,018.7,017.6,000.0,027.2,020.0,12.5,0000.0,0002.96,0004.35,0002.33
2024-01-06 12:12:00,SystemResetWarning,0824.0,4.99,000.00,018.7,017.6,000.0,027.2,020.0,12.5,0000.0,0002.97,0004.42,0002.34
2024-01-06 12:13:00,SystemResetWarning,0824.0,5.01,000.00,018.7,017.6,000.0,027.2,020.0,12.6,0000.0,0002.98,0004.55,0002.34
2024-01-06 12:14:00,SystemResetWarning,0824.0,5.01,000.00,018.7,017.5,000.0,027.2,020.0,12.7,0000.0,0002.93,0004.45,0002.33
2024-01-06 12:15:00,SystemResetWarning,0824.0,5.01,000.00,018.7,017.5,000.0,027.2,020.0,12.7,0000.0,0002.93,0004.45,0002.33
2024-01-06 12:16:00,SystemResetWarning,0824.0,5.00,000.00,018.7,017.5,000.0,027.2,020.1,12.7,0000.0,0002.91,0004.42,0002.34
2024-01-06 12:17:00,SystemResetWarning,0824.0,5.00,000.00,018.8,017.9,000.0,027.1,020.3,12.7,0000.0,0002.86,0004.29,0002.34
2024-01-06 12:18:00,SystemResetWarning,0824.0,4.99,000.00,018.9,018.5,000.0,027.1,020.6,12.7,0000.0,0002.87,0004.30,0002.34
2024-01-06 12:19:00,SystemResetWarning,0824.0,5.00,000.00,018.9,018.6,000.0,027.1,020.3,12.7,0000.0,0002.84,0004.25,0002.35
2024-01-06 12:20:00,SystemResetWarning,0824.0,5.00,000.00,018.8,018.5,000.0,027.1,020.0,12.7,0000.0,0002.87,0004.29,0002.34
2024-01-06 12:21:00,SystemResetWarning,0824.0,5.00,000.00,018.8,018.3,000.0,027.1,020.0,12.7,0000.0,0002.89,0004.32,0002.34
2024-01-06 12:22:00,SystemResetWarning,0824.0,5.00,000.00,018.8,018.2,000.0,027.2,020.0,12.8,0000.0,0002.91,0004.31,0002.35
2024-01-06 12:23:00,SystemResetWarning,0824.0,5.01,000.00,018.8,018.0,000.0,027.2,020.0,12.8,0000.0,0002.91,0004.28,0002.35
2024-01-06 12:24:00,SystemResetWarning,0824.0,5.00,000.00,018.8,017.9,000.0,027.2,020.0,12.8,0000.0,0002.90,0004.23,0002.35
2024-01-06 12:25:00,SystemResetWarning,0824.0,4.99,000.00,018.8,017.8,000.0,027.2,020.0,12.9,0000.0,0002.94,0005.15,0002.38
2024-01-06 12:26:00,SystemResetWarning,0824.0,4.99,000.00,018.8,017.8,000.0,027.2,020.0,12.9,0000.0,0002.96,0005.65,0002.39
2024-01-06 12:27:00,SystemResetWarning,0824.0,5.01,000.00,018.8,017.7,000.0,027.2,020.0,13.0,0000.0,0002.95,0005.57,0002.41
2024-01-06 12:28:00,SystemResetWarning,0824.0,5.01,000.00,018.8,017.7,000.0,027.2,020.0,13.0,0000.0,0002.96,0005.58,0002.43
2024-01-06 12:29:00,SystemResetWarning,0824.0,4.99,000.00,018.7,017.6,000.0,027.2,020.0,13.0,0000.0,0003.00,0005.64,0002.46
2024-01-06 12:30:00,SystemResetWarning,0824.0,4.99,000.00,018.7,017.6,000.0,027.2,020.0,13.1,0000.0,0003.01,0005.61,0002.50
2024-01-06 12:31:00,SystemResetWarning,0824.0,4.99,000.00,018.7,017.5,000.0,027.2,020.0,13.1,0000.0,0003.03,0005.72,0002.53
2024-01-06 12:32:00,SystemResetWarning,0824.0,5.00,000.00,018.7,017.5,000.0,027.2,020.0,13.1,0000.0,0003.03,0005.83,0002.56
2024-01-06 12:33:00,SystemResetWarning,0824.0,5.00,000.00,018.7,017.4,000.0,027.2,020.0,13.2,0000.0,0003.07,0006.37,0002.59
2024-01-06 12:34:00,SystemResetWarning,0824.0,5.00,000.00,018.7,017.4,000.0,027.2,020.0,13.2,0000.0,0003.06,0006.42,0002.60
2024-01-06 12:35:00,SystemResetWarning,0824.0,5.01,000.00,018.8,017.8,000.0,027.2,020.3,13.2,0000.0,0003.08,0006.47,0002.62
2024-01-06 12:36:00,SystemResetWarning,0824.0,5.00,000.00,018.9,018.6,000.0,027.2,020.7,13.2,0000.0,0003.07,0006.31,0002.63
2024-01-06 12:37:00,SystemResetWarning,0824.0,4.99,000.00,018.9,018.8,000.0,027.2,020.4,13.1,0000.0,0003.09,0005.85,0002.65
2024-01-06 12:38:00,SystemResetWarning,0824.0,4.99,000.00,018.9,018.6,000.0,027.2,020.0,13.2,0000.0,0003.09,0005.74,0002.67
2024-01-06 12:39:00,SystemResetWarning,0824.0,5.01,000.00,018.9,018.4,000.0,027.2,020.0,13.2,0000.0,0003.12,0005.87,0002.70
2024-01-06 12:40:00,SystemResetWarning,0824.0,5.01,000.00,018.8,018.2,000.0,027.2,020.0,13.3,0000.0,0003.12,0005.78,0002.73
2024-01-06 12:41:00,SystemResetWarning,0824.0,5.00,000.00,018.8,018.0,000.0,027.2,020.0,13.3,0000.0,0003.13,0005.85,0002.76
2024-01-06 12:42:00,SystemResetWarning,0824.0,4.99,000.00,018.8,017.9,000.0,027.3,020.0,13.3,0000.0,0003.15,0005.92,0002.78
2024-01-06 12:43:00,SystemResetWarning,0824.0,4.99,000.00,018.8,017.8,000.0,027.3,020.0,13.3,0000.0,0003.17,0006.00,0002.80
2024-01-06 12:44:00,SystemResetWarning,0824.0,4.99,000.00,018.8,017.7,000.0,027.3,020.0,13.3,0000.0,0003.17,0005.66,0002.84
2024-01-06 12:45:00,SystemResetWarning,0824.0,5.00,000.00,018.7,017.6,000.0,027.3,020.0,13.3,0000.0,0003.19,0005.46,0002.88
2024-01-06 12:46:00,SystemResetWarning,0824.0,5.00,000.00,018.7,017.5,000.0,027.3,020.0,13.2,0000.0,0003.22,0005.49,0002.93
2024-01-06 12:47:00,SystemResetWarning,0824.0,5.01,000.00,018.7,017.4,000.0,027.3,020.0,13.2,0000.0,0003.27,0006.45,0002.99
2024-01-06 12:48:00,SystemResetWarning,0824.0,5.00,000.00,018.7,017.4,000.0,027.3,020.0,13.2,0000.0,0003.27,0006.00,0003.03
2024-01-06 12:49:00,SystemResetWarning,0824.0,5.00,000.00,018.7,017.4,000.0,027.3,020.0,13.2,0000.0,0003.29,0006.05,0003.06
2024-01-06 12:50:00,SystemResetWarning,0824.0,4.99,000.00,018.7,017.4,000.0,027.3,020.0,13.1,0000.0,0003.30,0006.01,0003.09
2024-01-06 12:51:00,SystemResetWarning,0824.0,4.99,000.00,018.7,017.5,000.0,027.2,020.2,13.1,0000.0,0003.34,0006.23,0003.11
2024-01-06 12:52:00,SystemResetWarning,0824.0,5.01,000.00,018.8,018.2,000.0,027.2,020.5,13.0,0000.0,0003.35,0006.19,0003.12
2024-01-06 12:53:00,SystemResetWarning,0824.0,4.99,000.00,018.9,018.9,000.0,027.2,020.7,12.9,0000.0,0003.35,0006.08,0003.13
2024-01-06 12:54:00,SystemResetWarning,0824.0,5.00,000.00,018.9,018.8,000.0,027.2,020.2,12.9,0000.0,0003.36,0005.90,0003.15
2024-01-06 12:55:00,SystemResetWarning,0824.0,4.99,000.00,018.9,018.6,000.0,027.2,020.0,12.9,0000.0,0003.38,0005.88,0003.15
2024-01-06 12:56:00,SystemResetWarning,0824.0,5.00,000.00,018.8,018.4,000.0,027.2,020.0,12.9,0000.0,0003.37,0005.79,0003.16
2024-01-06 12:57:00,SystemResetWarning,0824.0,5.00,000.00,018.8,018.2,000.0,027.2,020.0,12.9,0000.0,0003.40,0006.36,0003.18
2024-01-06 12:58:00,SystemResetWarning,0824.0,5.00,000.00,018.8,018.0,000.0,027.2,020.0,12.8,0000.0,0003.36,0005.50,0003.17
2024-01-06 12:59:00,SystemResetWarning,0824.0,5.00,000.00,018.8,017.9,000.0,027.3,020.0,12.8,0000.0,0003.38,0005.62,0003.18
